CHURANOV Weather Reports


time (UTC)temp
C
wind
direction
speed
KPH
gust
KPH
rain 1hr
cm
rain 24hr
cm
rain mn
cm
humidity
%
barometer
mb
20260507101912 7 230 22.5 0.0 0.00 0.00 0.00 75
20260507091712 7 240 22.5 41.8 0.00 0.00 0.00 81
20260507081712 6 240 19.3 38.6 0.00 0.00 0.00 86
20260507071712 7 230 22.5 38.6 0.00 0.00 0.00 87
20260507061712 6 240 22.5 38.6 0.00 0.00 0.00 86
20260507051712 6 240 14.5 0.0 0.00 0.00 0.00 86
20260507041914 5 240 11.3 0.0 0.00 0.00 0.00 93
20260507031712 6 230 14.5 0.0 0.00 0.00 0.00 93
20260507021711 6 230 14.5 0.0 0.00 0.00 0.00 93
20260507011811 6 230 22.5 41.8 0.00 0.00 0.00 93
20260507001713 7 240 19.3 0.0 0.00 0.00 0.00 93
20260506231712 7 230 19.3 0.0 0.00 0.00 0.00 93
20260506221912 7 230 19.3 0.0 0.00 0.00 0.00 93
20260506211717 7 230 22.5 0.0 0.00 0.00 0.00 93
20260506201713 7 200 8.0 0.0 0.00 0.00 0.00 93
20260506191728 7 200 8.0 0.0 0.00 0.00 0.00 99
20260506181728 7 260 25.7 53.1 0.00 0.00 0.00 93
20260506171712 12 0 8.0 0.0 0.00 0.00 0.00 71
20260506161912 13 350 8.0 0.0 0.00 0.00 0.00 67
20260506151712 15 340 11.3 0.0 0.00 0.00 0.00 62
20260506141713 16 0 3.2 0.0 0.00 0.00 0.00 44
20260506131713 16 170 11.3 0.0 0.00 0.00 0.00 44
20260506121712 17 200 11.3 29.0 0.00 0.00 0.00 39
20260506111713 17 170 11.3 0.0 0.00 0.00 0.00 39